TimeCDT,TemperatureF,Dew PointF,Humidity,Sea Level PressureIn,VisibilityMPH,Wind Direction,Wind SpeedMPH,Gust SpeedMPH,PrecipitationIn,Events,Conditions,WindDirDegrees,DateUTC
12:38 AM,55.4,55.4,100,30.17,6.0,SSE,8.1,-,N/A,,Overcast,150,2012-10-13 05:38:00
12:55 AM,56.1,56.1,100,30.15,4.0,SSE,10.4,-,N/A,,Overcast,150,2012-10-13 05:55:00
1:30 AM,55.4,55.4,100,30.14,9.0,South,8.1,-,N/A,,Overcast,170,2012-10-13 06:30:00
1:55 AM,56.1,56.1,100,30.12,8.0,SSE,16.1,21.9,N/A,,Overcast,160,2012-10-13 06:55:00
2:55 AM,56.1,56.1,100,30.07,9.0,SSE,13.8,19.6,N/A,,Overcast,160,2012-10-13 07:55:00
3:55 AM,57.2,57.2,100,30.07,10.0,SSE,11.5,-,N/A,,Overcast,150,2012-10-13 08:55:00
4:00 AM,57.2,57.2,100,30.07,10.0,SSE,10.4,-,N/A,,Overcast,160,2012-10-13 09:00:00
4:12 AM,57.2,57.2,100,30.08,10.0,South,6.9,-,N/A,,Overcast,170,2012-10-13 09:12:00
4:28 AM,59.0,59.0,100,30.09,10.0,South,6.9,-,N/A,,Overcast,170,2012-10-13 09:28:00
4:31 AM,59.0,59.0,100,30.09,10.0,South,6.9,-,N/A,,Overcast,170,2012-10-13 09:31:00
4:38 AM,59.0,59.0,100,30.09,10.0,South,6.9,-,N/A,,Overcast,170,2012-10-13 09:38:00
4:55 AM,59.5,59.5,100,30.08,10.0,South,8.1,-,N/A,,Overcast,170,2012-10-13 09:55:00
4:59 AM,59.0,59.0,100,30.07,10.0,South,9.2,-,N/A,,Overcast,170,2012-10-13 09:59:00
5:02 AM,59.0,59.0,100,30.07,10.0,South,10.4,-,N/A,,Overcast,170,2012-10-13 10:02:00
5:19 AM,60.8,60.8,100,30.06,10.0,South,11.5,-,N/A,,Overcast,170,2012-10-13 10:19:00
5:50 AM,60.8,60.8,100,30.07,10.0,South,6.9,-,N/A,,Overcast,180,2012-10-13 10:50:00
5:55 AM,60.6,60.6,100,30.07,10.0,South,9.2,-,N/A,,Overcast,170,2012-10-13 10:55:00
6:34 AM,60.8,60.8,100,30.07,10.0,South,10.4,16.1,N/A,,Overcast,180,2012-10-13 11:34:00
6:55 AM,62.2,62.2,100,30.07,10.0,South,12.7,18.4,N/A,,Overcast,180,2012-10-13 11:55:00
6:57 AM,62.6,62.6,100,30.07,10.0,South,9.2,18.4,N/A,,Overcast,180,2012-10-13 11:57:00
7:17 AM,62.6,62.6,100,30.06,10.0,South,12.7,20.7,N/A,,Overcast,170,2012-10-13 12:17:00
7:55 AM,63.5,63.0,98,30.06,10.0,South,12.7,19.6,N/A,,Overcast,180,2012-10-13 12:55:00
8:55 AM,64.8,63.7,96,30.06,10.0,South,11.5,19.6,N/A,,Overcast,180,2012-10-13 13:55:00
9:46 AM,66.2,64.4,94,30.05,10.0,South,11.5,20.7,N/A,,Overcast,180,2012-10-13 14:46:00
9:55 AM,66.4,63.3,90,30.05,10.0,South,12.7,19.6,N/A,,Overcast,180,2012-10-13 14:55:00
10:24 AM,66.2,62.6,88,30.05,10.0,South,10.4,17.3,N/A,,Mostly Cloudy,190,2012-10-13 15:24:00
10:55 AM,68.9,63.0,81,30.04,10.0,South,11.5,17.3,N/A,,Overcast,170,2012-10-13 15:55:00
11:55 AM,70.9,63.3,77,30.00,10.0,South,10.4,25.3,N/A,,Mostly Cloudy,180,2012-10-13 16:55:00
12:19 PM,71.6,64.4,78,30.00,10.0,SSW,12.7,25.3,N/A,,Mostly Cloudy,200,2012-10-13 17:19:00
12:55 PM,70.3,64.2,81,29.99,10.0,South,10.4,17.3,N/A,,Overcast,180,2012-10-13 17:55:00
1:55 PM,70.5,64.4,81,29.96,10.0,South,12.7,21.9,N/A,,Overcast,180,2012-10-13 18:55:00
2:55 PM,73.4,64.6,74,29.91,10.0,South,15.0,26.5,N/A,,Mostly Cloudy,180,2012-10-13 19:55:00
3:25 PM,73.4,64.4,73,29.90,10.0,South,13.8,21.9,N/A,,Overcast,180,2012-10-13 20:25:00
3:26 PM,73.4,64.4,73,29.90,10.0,South,12.7,21.9,N/A,,Overcast,180,2012-10-13 20:26:00
3:55 PM,73.2,64.6,74,29.88,10.0,South,11.5,24.2,N/A,,Mostly Cloudy,180,2012-10-13 20:55:00
4:12 PM,75.2,64.4,69,29.87,10.0,South,17.3,25.3,N/A,,Mostly Cloudy,180,2012-10-13 21:12:00
4:43 PM,73.4,64.4,73,29.87,10.0,South,10.4,20.7,N/A,,Mostly Cloudy,170,2012-10-13 21:43:00
4:55 PM,74.1,64.9,73,29.86,10.0,SSE,17.3,27.6,N/A,,Overcast,160,2012-10-13 21:55:00
5:06 PM,73.4,64.4,73,29.86,10.0,South,18.4,27.6,N/A,,Overcast,170,2012-10-13 22:06:00
5:55 PM,71.8,63.5,75,29.86,10.0,South,15.0,24.2,N/A,,Overcast,170,2012-10-13 22:55:00
6:00 PM,71.6,64.4,78,29.86,10.0,South,11.5,23.0,N/A,,Overcast,180,2012-10-13 23:00:00
6:03 PM,71.6,64.4,78,29.86,10.0,SSE,16.1,21.9,N/A,,Overcast,160,2012-10-13 23:03:00
6:55 PM,70.7,64.0,79,29.84,10.0,South,13.8,23.0,N/A,,Overcast,180,2012-10-13 23:55:00
7:55 PM,70.7,64.6,81,29.83,10.0,South,15.0,23.0,N/A,,Overcast,170,2012-10-14 00:55:00
8:55 PM,71.1,65.1,81,29.81,10.0,South,13.8,25.3,N/A,,Overcast,170,2012-10-14 01:55:00
9:02 PM,71.6,66.2,83,29.80,10.0,South,13.8,20.7,N/A,,Light Drizzle,170,2012-10-14 02:02:00
9:54 PM,68.0,66.2,94,29.78,4.0,SSE,17.3,23.0,N/A,Rain-Thunderstorm,Light Thunderstorms and Rain,160,2012-10-14 02:54:00
9:55 PM,67.8,66.9,97,29.78,2.5,SSE,18.4,25.3,0.15,Rain-Thunderstorm,Light Thunderstorms and Rain,160,2012-10-14 02:55:00
10:05 PM,68.0,68.0,100,29.76,4.0,SSE,13.8,25.3,N/A,Rain-Thunderstorm,Light Thunderstorms and Rain,150,2012-10-14 03:05:00
10:07 PM,68.0,66.2,94,29.76,8.0,SSE,13.8,21.9,N/A,Thunderstorm,Thunderstorm,150,2012-10-14 03:07:00
10:11 PM,68.0,66.2,94,29.76,10.0,SSE,12.7,-,N/A,Thunderstorm,Overcast,150,2012-10-14 03:11:00
10:13 PM,68.0,66.2,94,29.76,10.0,SSE,12.7,-,N/A,Thunderstorm,Thunderstorm,160,2012-10-14 03:13:00
10:29 PM,68.0,66.2,94,29.78,10.0,South,8.1,-,N/A,Rain-Thunderstorm,Light Thunderstorms and Rain,180,2012-10-14 03:29:00
10:31 PM,68.0,66.2,94,29.79,7.0,South,9.2,17.3,N/A,Rain-Thunderstorm,Light Thunderstorms and Rain,190,2012-10-14 03:31:00
10:37 PM,68.0,66.2,94,29.78,3.0,South,10.4,23.0,N/A,Rain,Heavy Rain,180,2012-10-14 03:37:00
10:38 PM,68.0,66.2,94,29.79,2.5,South,12.7,23.0,N/A,Rain,Heavy Rain,180,2012-10-14 03:38:00
10:50 PM,66.2,66.2,100,29.81,3.0,SW,9.2,23.0,N/A,Rain,Rain,220,2012-10-14 03:50:00
10:55 PM,65.5,65.5,100,29.81,5.0,SW,10.4,23.0,0.30,Rain,Light Rain,220,2012-10-14 03:55:00
10:58 PM,64.4,64.4,100,29.81,5.0,SW,8.1,21.9,N/A,Rain,Rain,230,2012-10-14 03:58:00
10:59 PM,64.4,64.4,100,29.81,5.0,SW,6.9,21.9,N/A,Rain,Light Rain,230,2012-10-14 03:59:00
11:00 PM,64.4,64.4,100,29.81,6.0,WSW,8.1,21.9,N/A,Rain,Light Rain,240,2012-10-14 04:00:00
11:07 PM,64.4,64.4,100,29.81,6.0,Variable,5.8,-,N/A,Rain,Rain,0,2012-10-14 04:07:00
11:09 PM,64.4,64.4,100,29.81,5.0,Variable,6.9,-,N/A,Rain,Rain,0,2012-10-14 04:09:00
11:12 PM,64.4,64.4,100,29.81,4.0,WSW,5.8,-,N/A,Rain,Rain,240,2012-10-14 04:12:00
11:32 PM,62.6,62.6,100,29.80,2.5,Variable,3.5,-,N/A,Rain,Rain,0,2012-10-14 04:32:00
11:34 PM,62.6,62.6,100,29.81,2.0,Variable,4.6,-,N/A,Rain,Rain,0,2012-10-14 04:34:00
11:44 PM,62.6,62.6,100,29.80,2.5,Calm,Calm,-,N/A,Rain,Rain,0,2012-10-14 04:44:00
11:47 PM,62.6,62.6,100,29.80,1.8,Calm,Calm,-,N/A,Rain,Heavy Rain,0,2012-10-14 04:47:00
11:48 PM,62.6,62.6,100,29.80,1.5,SW,4.6,-,N/A,Rain,Heavy Rain,220,2012-10-14 04:48:00
11:51 PM,62.6,62.6,100,29.80,1.2,SW,3.5,-,N/A,Rain,Heavy Rain,230,2012-10-14 04:51:00
11:55 PM,63.1,63.1,100,29.79,1.5,Variable,3.5,-,0.36,Rain,Heavy Rain,0,2012-10-14 04:55:00
11:57 PM,62.6,62.6,100,29.80,1.8,Variable,3.5,-,N/A,Rain,Heavy Rain,0,2012-10-14 04:57:00
11:58 PM,62.6,62.6,100,29.79,2.0,Variable,4.6,-,N/A,Rain,Heavy Rain,0,2012-10-14 04:58:00